Probability
1 2 3 2 1 0 0 0 0 0 0 0 0 0 0 0 0 0 0 0 0 0 0 0 0 0 0 0 0 0 0 0 0 0 0 0 0 0 0 0 0 0 0
1 2 2 1 0 0 0 0 0 0 0 0 0 0 0 0 0 0 0 0 0 0 0 0 0 0 0 0 0 0 0 0 0 0 0 0 0 0 0 0 0 0 0
0 1 1 1 0 0 0 0 0 0 0 0 0 0 0 0 0 0 0 0 0 0 0 0 0 0 0 0 0 0 0 0 0 0 0 0 0 0 0 0 0 0 0
0 0 0 0 0 0 0 0 0 0 0 0 0 0 0 0 0 0 0 0 0 0 0 0 0 0 0 0 0 0 0 0 0 0 0 0 0 0 0 0 0 0 0
0 0 0 0 0 0 0 0 0 0 0 0 0 0 0 0 0 0 0 0 0 0 0 0 0 0 0 0 0 0 0 0 0 0 0 0 0 0 0 0 0 0 1
0 0 0 0 0 0 0 0 0 0 0 0 0 0 0 0 0 0 0 0 0 0 0 0 0 0 0 0 0 0 1 0 0 0 0 0 0 0 0 0 0 0 1
0 0 0 0 0 0 0 0 0 0 0 0 0 0 0 0 0 0 0 0 0 0 0 0 0 0 0 0 0 0 0 0 0 0 0 0 0 0 0 0 1 1 1
0 0 0 0 0 0 0 0 0 0 0 0 0 0 0 0 0 0 0 0 0 0 0 0 0 0 0 0 0 0 0 0 0 0 1 0 0 0 0 1 3 3 2
0 0 0 0 0 0 0 0 0 0 0 0 0 0 0 0 0 0 0 0 0 0 0 0 0 0 0 0 0 0 0 0 0 0 0 0 0 0 0 0 2 3 3
0 0 0 0 0 0 0 0 0 0 0 0 0 0 0 0 0 0 0 0 0 0 0 0 0 0 0 0 0 0 0 0 0 0 0 0 0 0 0 0 0 1 1
0 0 0 0 0 0 0 0 0 0 0 0 0 0 0 0 0 0 0 0 0 0 0 0 0 0 0 0 0 0 0 0 0 0 0 0 0 0 0 0 0 0 0
0 0 0 0 0 0 0 0 0 0 0 0 0 0 0 0 0 0 0 0 0 0 0 0 0 0 0 0 0 0 0 0 0 0 0 0 0 0 0 0 0 0 0
0 0 0 0 0 0 0 0 0 0 0 0 0 0 0 0 0 0 0 0 0 0 0 0 0 0 0 0 0 0 0 0 0 0 0 0 0 0 0 0 0 0 0
0 0 0 0 0 0 0 0 0 0 0 0 0 0 0 0 0 0 0 0 0 0 0 0 0 0 0 0 0 0 0 0 0 0 0 0 0 0 0 0 0 0 0
0 0 0 0 0 0 0 0 0 0 0 0 0 0 0 0 0 0 0 0 0 0 0 0 0 0 0 0 0 0 0 0 0 0 0 0 0 0 0 0 0 0 0
0 0 0 0 0 0 0 0 0 0 0 0 0 0 0 0 0 0 0 0 0 0 0 0 0 0 0 0 0 0 0 0 0 0 0 0 0 0 0 0 0 0 0
0 0 0 0 0 0 0 0 0 0 0 0 0 0 0 0 0 0 0 0 0 0 0 0 0 0 0 0 0 0 0 0 0 0 0 0 0 0 0 1 1 0 0
0 0 0 0 0 0 0 0 0 0 0 0 0 0 0 0 0 0 0 0 0 0 0 0 0 0 0 0 0 0 0 0 0 0 0 0 0 0 0 1 1 1 1
0 0 0 0 0 0 0 0 0 0 0 0 0 0 0 0 0 0 0 0 0 0 0 0 0 0 0 0 0 0 0 0 0 0 0 0 0 0 0 1 1 2 2
0 0 0 0 0 0 0 0 0 0 0 0 0 0 0 0 0 0 0 0 0 0 0 0 0 0 0 0 0 0 0 0 0 0 0 0 0 0 0 0 0 1 2
0 0 0 0 0 0 0 0 0 0 0 0 0 0 0 0 0 0 0 0 0 0 0 0 0 0 0 0 0 0 0 0 1 0 0 0 0 0 0 0 0 0 1
0 0 0 0 0 0 0 0 0 0 0 0 0 0 0 0 0 0 0 0 0 0 0 0 0 0 0 0 0 0 0 0 0 0 0 0 0 0 0 0 0 0 0
0 0 0 0 0 0 0 0 0 0 0 0 0 0 0 0 0 0 0 0 0 0 0 0 0 0 0 0 0 0 0 0 0 0 0 0 0 0 0 0 0 0 0
0 0 0 0 0 0 0 0 0 0 0 0 0 0 0 0 0 0 0 0 0 0 0 0 0 0 0 0 0 0 0 0 0 0 0 0 0 0 0 0 0 0 0
0 0 0 0 0 0 0 0 0 0 0 0 0 0 0 0 0 0 0 0 0 0 0 0 0 0 0 0 0 0 0 0 0 0 0 0 0 0 0 0 0 0 0
0 0 0 0 0 0 0 0 0 0 0 0 0 0 0 0 0 0 0 0 0 0 0 0 0 0 0 0 0 0 0 0 0 0 0 0 0 0 0 0 0 0 0
Wind_Speed
5 7 9 9 10 10 10 10 10 10 10 10 10 9 8 8 8 8 7 7 7 7 6 6 6 5 6 6 5 5 5 5 6 6 5 4 5 5 4 4 4 1 4
7 8 10 9 10 10 10 10 11 10 10 10 9 9 9 9 8 8 8 7 7 7 7 6 6 5 6 6 6 5 5 6 5 6 5 2 3 4 5 4 5 4 4
7 8 9 9 10 10 10 11 11 10 10 10 9 9 9 9 8 8 8 8 8 7 7 6 6 5 5 5 6 6 6 6 5 5 5 3 3 5 6 4 4 4 4
8 8 9 10 10 11 11 11 11 10 10 10 9 9 9 9 8 8 8 8 7 7 7 7 6 6 6 5 5 5 5 6 5 5 3 4 4 6 6 5 4 4 5
9 9 11 10 11 11 11 11 11 11 10 10 9 9 9 8 8 8 8 7 7 7 7 7 6 6 5 5 5 5 5 5 4 4 3 4 3 5 6 5 5 5 5
9 9 11 10 11 11 11 11 10 10 10 9 9 9 8 8 8 7 7 7 7 7 7 7 6 5 5 5 5 5 5 5 5 2 3 3 3 5 5 5 5 5 6
10 10 11 11 11 11 10 10 10 9 9 9 8 8 8 8 7 7 7 7 7 7 7 6 6 6 5 5 4 4 4 5 4 2 2 2 5 6 5 5 5 5 6
9 9 10 11 10 10 9 9 9 9 9 9 8 8 8 8 7 7 8 7 7 7 7 7 7 6 6 5 4 4 4 7 2 2 2 2 6 5 5 5 5 5 6
8 8 8 9 9 9 9 9 9 9 9 8 8 8 8 8 8 7 7 8 8 8 8 7 7 6 6 5 4 3 3 4 3 1 2 3 6 5 4 4 5 5 6
7 7 7 6 6 6 8 9 8 8 8 7 7 7 5 3 5 4 5 8 8 8 8 8 7 6 5 5 5 4 3 4 2 2 2 5 6 4 4 4 5 5 5
6 6 6 6 6 5 5 6 5 5 5 2 4 5 2 4 6 4 10 8 8 8 8 8 7 5 3 1 2 2 4 1 2 2 3 7 5 4 4 5 4 4 5
7 6 6 5 5 5 4 4 3 4 4 4 5 5 4 5 5 5 5 5 5 5 3 5 5 4 5 0 2 4 1 1 1 1 4 7 5 4 4 5 5 4 4
7 6 5 5 4 4 3 3 3 3 3 4 5 5 4 4 3 4 3 2 3 4 4 3 3 3 3 3 2 2 3 2 1 1 5 7 5 5 5 5 5 4 4
6 5 5 4 4 4 4 4 3 3 3 4 5 6 5 4 4 5 3 5 4 3 4 4 3 4 4 3 3 3 2 2 2 2 5 6 6 5 5 5 5 5 5
7 5 5 4 4 5 4 3 3 4 4 5 4 5 6 4 5 4 4 4 5 4 4 4 4 5 4 4 4 4 3 3 2 2 3 6 5 6 6 6 5 5 5
6 6 6 5 4 4 3 3 4 4 4 5 5 5 6 5 5 4 4 4 5 5 5 4 5 4 3 3 4 5 4 4 3 3 3 4 5 5 5 5 6 5 5
6 6 5 4 4 4 4 5 4 3 4 5 5 6 6 6 5 5 5 5 5 5 5 4 5 4 3 3 4 4 4 4 4 4 3 2 3 5 5 6 6 6 5
6 6 6 4 4 5 4 4 3 4 4 4 4 5 7 7 6 5 5 5 5 5 5 4 4 4 4 4 4 4 4 4 5 4 3 3 3 3 6 7 7 7 7
6 6 6 6 5 5 5 4 3 4 4 4 4 5 6 7 7 6 5 5 6 5 5 5 5 4 4 4 4 4 5 5 4 4 5 5 5 3 4 5 5 7 8
6 6 7 6 5 6 4 3 3 4 4 4 4 5 7 6 7 6 4 6 6 5 5 5 5 4 4 3 3 4 4 4 4 5 5 5 5 5 5 5 3 5 7
7 7 7 6 6 4 3 2 3 3 3 4 4 6 5 6 6 6 5 6 6 6 6 7 5 5 5 3 1 2 4 6 6 5 5 5 6 6 5 5 4 4 3
7 7 7 6 5 4 3 3 2 3 3 4 3 4 5 6 6 5 6 5 5 5 6 7 6 5 5 4 3 1 2 3 4 5 5 5 6 5 5 6 6 5 4
7 7 6 6 6 5 5 3 3 3 2 3 3 3 5 5 6 6 7 6 6 6 6 7 7 7 5 5 6 5 3 3 2 4 6 5 6 5 5 5 6 6 5
7 6 7 7 6 6 5 3 3 2 3 4 3 3 3 4 5 6 6 6 6 6 6 6 7 5 5 5 4 5 5 4 2 2 3 5 6 6 6 6 6 6 6
7 7 6 7 7 6 5 4 3 3 3 3 3 4 3 4 5 5 5 5 6 6 7 7 7 7 5 6 5 4 4 3 4 3 3 4 4 5 5 6 5 5 6
7 7 7 7 7 6 5 4 3 4 3 3 3 3 2 3 3 5 4 5 5 6 6 6 6 7 6 6 5 5 5 4 5 4 3 3 4 4 5 4 4 5 5
Wind_Direction
98 97 97 101 99 96 95 92 90 87 84 82 80 79 75 72 69 65 61 57 53 49 42 36 35 36 34 34 31 28 27 24 22 21 21 22 17 14 6 357 330 352 40
100 98 98 99 99 95 92 91 87 84 81 80 78 75 71 66 62 57 52 50 46 41 37 33 29 29 30 28 28 25 23 18 15 12 358 350 37 16 5 4 348 7 10
101 101 107 99 97 93 90 87 87 85 82 79 75 72 67 63 59 55 50 47 44 41 36 32 27 28 28 26 22 21 21 14 10 355 308 322 52 46 11 3 357 356 353
100 96 92 97 95 91 87 86 85 84 80 76 72 68 63 59 55 52 46 42 39 36 33 31 26 25 24 24 20 15 15 12 2 318 313 7 8 45 10 4 1 359 359
97 93 94 95 93 91 89 86 83 79 74 71 68 62 58 55 52 48 42 39 35 31 29 26 20 16 10 8 8 8 6 2 339 303 6 4 5 34 9 4 3 7 6
100 96 95 93 92 90 87 82 78 74 69 65 60 55 52 49 47 44 40 37 31 26 26 23 15 10 7 4 3 1 357 345 300 357 8 359 17 32 10 8 14 15 10
102 98 97 93 92 90 86 80 76 70 63 57 52 48 44 42 39 36 34 30 26 21 20 17 15 14 12 6 1 358 352 324 313 352 351 5 29 20 6 7 11 17 14
101 100 103 99 88 85 81 76 69 63 56 53 49 45 39 37 36 32 27 23 20 19 18 16 15 12 10 10 9 10 360 316 314 353 8 20 37 12 7 12 16 15 15
102 102 102 109 110 101 81 67 62 57 53 49 46 44 42 40 37 31 26 24 23 21 20 19 16 14 19 18 17 20 10 325 312 354 17 41 39 13 8 14 16 14 18
109 107 103 100 95 94 95 78 61 55 51 48 49 44 38 58 62 35 32 37 24 22 20 16 13 14 15 20 21 20 332 272 355 21 23 54 37 19 17 19 21 19 19
114 110 106 101 94 83 75 78 79 79 58 55 80 66 348 24 30 38 40 29 24 19 18 14 7 358 325 113 56 330 266 320 36 17 40 43 26 24 25 24 24 24 20
122 116 110 103 100 90 72 76 59 56 53 39 34 33 26 34 25 17 83 48 30 6 10 22 334 279 271 344 137 233 292 354 335 43 63 38 23 23 25 27 23 24 21
119 116 109 105 95 83 85 68 54 50 51 47 38 38 22 22 24 20 18 46 25 352 8 10 308 358 355 12 340 347 10 349 346 38 63 38 25 22 29 29 26 24 28
120 112 108 104 103 93 81 74 62 55 47 45 37 29 26 25 15 25 18 16 10 20 8 357 356 14 2 9 3 5 17 4 13 36 70 46 26 25 30 28 29 27 31
123 120 108 100 92 89 82 71 67 59 41 57 44 35 32 24 21 23 28 16 13 12 11 0 3 17 11 20 19 22 20 26 23 36 80 72 39 29 28 29 28 27 33
129 119 114 113 102 101 101 90 68 64 70 52 46 40 33 30 24 13 27 25 18 9 6 359 20 10 20 28 30 36 21 26 38 51 55 97 89 54 35 33 28 27 33
128 123 117 112 111 98 85 77 76 69 64 57 48 36 38 33 24 22 21 27 18 11 10 8 21 14 31 40 48 44 46 31 34 48 53 43 88 96 65 44 35 32 36
132 125 120 124 121 106 94 88 84 72 61 56 51 40 36 36 33 29 24 27 21 16 16 17 12 21 36 37 44 42 56 53 43 44 56 62 52 61 88 62 42 36 36
132 130 127 124 124 114 106 101 85 81 66 55 49 43 35 37 32 39 28 20 24 24 22 19 23 13 33 33 51 53 47 48 43 40 48 49 54 51 64 88 76 54 42
138 134 129 129 130 122 123 113 102 84 75 64 54 46 33 32 30 32 34 28 23 29 26 28 32 30 22 18 44 62 57 57 55 42 37 47 46 47 47 48 67 80 61
150 144 139 142 137 136 128 119 105 93 81 72 58 47 38 32 29 31 23 29 21 29 25 26 22 38 34 11 30 85 83 59 50 50 37 35 49 44 43 48 40 40 70
154 152 148 146 141 134 114 101 95 88 79 70 64 59 39 35 30 27 29 31 34 32 32 29 26 20 35 22 1 9 83 88 51 45 42 39 39 41 38 42 43 43 36
157 158 152 149 143 136 130 120 124 120 125 106 80 59 39 36 37 31 32 31 30 33 35 27 26 26 26 34 25 7 16 37 31 51 40 42 40 33 35 34 39 39 40
156 157 155 150 142 137 141 137 125 110 90 74 63 67 66 52 45 37 37 35 37 37 36 32 35 28 23 31 43 31 31 27 354 49 57 43 38 35 32 30 32 38 35
153 153 152 145 138 136 134 124 132 105 91 89 82 77 67 65 50 46 40 40 39 39 38 37 33 28 32 30 30 31 34 28 11 23 39 30 43 40 34 30 31 35 32
150 152 152 147 138 138 140 137 127 108 104 97 82 70 71 75 60 55 45 44 42 39 38 35 36 41 32 32 27 31 25 25 16 16 18 25 33 34 32 36 30 30 26